Time,TemperatureF,DewpointF,PressureIn,WindDirection,WindDirectionDegrees,WindSpeedMPH,WindSpeedGustMPH,Humidity,HourlyPrecipIn,Conditions,Clouds,dailyrainin,SolarRadiationWatts/m^2,SoftwareType,DateUTC
2013-02-13 00:01:00,32.0,23.0,30.24,SSW,201,17.0,22.0,69,-99.99,,,-99.99,-0.100000,,2013-02-13 07:01:00,
2013-02-13 00:11:00,32.0,23.0,30.22,SSW,204,22.0,28.0,70,-99.99,,,-99.99,-0.100000,,2013-02-13 07:11:00,
2013-02-13 00:21:00,32.0,23.0,30.21,SSW,197,20.0,25.0,70,-99.99,,,-99.99,-0.100000,,2013-02-13 07:21:00,
2013-02-13 00:31:00,31.0,23.0,30.22,SSW,200,16.0,22.0,70,-99.99,,,-99.99,-0.100000,,2013-02-13 07:31:00,
2013-02-13 00:41:00,32.0,23.0,30.23,SSW,204,15.0,22.0,69,-99.99,,,-99.99,0.000000,,2013-02-13 07:41:00,
2013-02-13 00:51:00,32.0,23.0,30.23,SSW,200,16.0,19.0,69,-99.99,,,-99.99,-0.100000,,2013-02-13 07:51:00,
2013-02-13 01:01:00,32.0,23.0,30.23,SSW,197,17.0,21.0,68,-99.99,,,-99.99,0.000000,,2013-02-13 08:01:00,
2013-02-13 01:11:00,32.0,23.0,30.24,SSW,205,15.0,19.0,68,-99.99,,,-99.99,-0.100000,,2013-02-13 08:11:00,
2013-02-13 01:21:00,32.0,23.0,30.24,SSW,213,11.0,16.0,69,-99.99,,,-99.99,0.000000,,2013-02-13 08:21:00,
2013-02-13 01:31:00,32.0,23.0,30.24,SSW,210,12.0,16.0,69,-99.99,,,-99.99,-0.100000,,2013-02-13 08:31:00,
2013-02-13 01:42:00,31.0,23.0,30.24,SSW,204,13.0,15.0,69,-99.99,,,-99.99,0.000000,,2013-02-13 08:42:00,
2013-02-13 01:51:00,31.0,23.0,30.23,SSW,196,12.0,14.0,70,-99.99,,,-99.99,0.000000,,2013-02-13 08:51:00,
2013-02-13 02:01:00,31.0,23.0,30.23,SSW,199,13.0,15.0,70,-99.99,,,-99.99,-0.100000,,2013-02-13 09:01:00,
2013-02-13 02:11:00,31.0,22.0,30.23,SSW,198,14.0,17.0,69,-99.99,,,-99.99,-0.100000,,2013-02-13 09:11:00,
2013-02-13 02:21:00,31.0,22.0,30.22,SSW,206,13.0,16.0,70,-99.99,,,-99.99,0.000000,,2013-02-13 09:21:00,
2013-02-13 02:31:00,31.0,23.0,30.22,SSW,205,13.0,17.0,70,-99.99,,,-99.99,-0.100000,,2013-02-13 09:31:00,
2013-02-13 02:41:00,31.0,22.0,30.23,SSW,209,11.0,13.0,70,-99.99,,,-99.99,0.000000,,2013-02-13 09:41:00,
2013-02-13 02:51:00,31.0,22.0,30.23,SSW,202,13.0,16.0,69,-99.99,,,-99.99,-0.100000,,2013-02-13 09:51:00,
2013-02-13 03:01:00,31.0,23.0,30.24,SSW,210,12.0,16.0,69,-99.99,,,-99.99,-0.100000,,2013-02-13 10:01:00,
2013-02-13 03:11:00,31.0,23.0,30.24,SSW,208,11.0,15.0,69,-99.99,,,-99.99,0.000000,,2013-02-13 10:11:00,
2013-02-13 03:21:00,31.0,23.0,30.24,SSW,205,10.0,12.0,69,-99.99,,,-99.99,0.000000,,2013-02-13 10:21:00,
2013-02-13 03:31:00,32.0,23.0,30.24,SSW,213,11.0,14.0,69,-99.99,,,-99.99,-0.100000,,2013-02-13 10:31:00,
2013-02-13 03:41:00,31.0,23.0,30.24,SW,214,11.0,13.0,69,-99.99,,,-99.99,-0.100000,,2013-02-13 10:41:00,
2013-02-13 03:51:00,31.0,23.0,30.23,SW,215,11.0,14.0,69,-99.99,,,-99.99,0.000000,,2013-02-13 10:51:00,
2013-02-13 04:01:00,31.0,22.0,30.23,SSW,213,12.0,14.0,69,-99.99,,,-99.99,0.000000,,2013-02-13 11:01:00,
2013-02-13 04:11:00,31.0,22.0,30.23,SSW,210,12.0,15.0,69,-99.99,,,-99.99,-0.100000,,2013-02-13 11:11:00,
2013-02-13 04:22:00,31.0,22.0,30.22,SSW,203,14.0,17.0,69,-99.99,,,-99.99,-0.100000,,2013-02-13 11:22:00,
2013-02-13 04:31:00,31.0,22.0,30.21,SSW,211,13.0,15.0,70,-99.99,,,-99.99,-0.100000,,2013-02-13 11:31:00,
2013-02-13 04:41:00,31.0,23.0,30.20,SSW,197,16.0,20.0,69,-99.99,,,-99.99,-0.100000,,2013-02-13 11:41:00,
2013-02-13 04:52:00,31.0,22.0,30.20,SSW,197,15.0,21.0,68,-99.99,,,-99.99,0.000000,,2013-02-13 11:52:00,
2013-02-13 05:02:00,32.0,23.0,30.20,SSW,200,17.0,22.0,68,-99.99,,,-99.99,-0.100000,,2013-02-13 12:02:00,
2013-02-13 05:11:00,32.0,22.0,30.20,SSW,195,16.0,19.0,67,-99.99,,,-99.99,-0.100000,,2013-02-13 12:11:00,
2013-02-13 05:21:00,32.0,22.0,30.20,South,191,14.0,17.0,66,-99.99,,,-99.99,0.000000,,2013-02-13 12:21:00,
2013-02-13 05:31:00,32.0,22.0,30.21,SSW,194,13.0,17.0,66,-99.99,,,-99.99,-0.100000,,2013-02-13 12:31:00,
2013-02-13 05:42:00,32.0,22.0,30.21,SSW,194,13.0,17.0,66,-99.99,,,-99.99,-0.100000,,2013-02-13 12:42:00,
2013-02-13 05:51:00,32.0,23.0,30.22,SSW,207,14.0,17.0,67,-99.99,,,-99.99,0.000000,,2013-02-13 12:51:00,
2013-02-13 06:02:00,32.0,23.0,30.22,SSW,204,12.0,16.0,67,-99.99,,,-99.99,0.000000,,2013-02-13 13:02:00,
2013-02-13 06:11:00,32.0,23.0,30.22,SSW,201,11.0,14.0,67,-99.99,,,-99.99,-0.100000,,2013-02-13 13:11:00,
2013-02-13 06:21:00,32.0,23.0,30.22,SSW,204,13.0,16.0,68,-99.99,,,-99.99,-0.100000,,2013-02-13 13:21:00,
2013-02-13 06:31:00,32.0,23.0,30.21,SSW,207,16.0,22.0,68,-99.99,,,-99.99,0.000000,,2013-02-13 13:31:00,
2013-02-13 06:41:00,32.0,23.0,30.21,SSW,207,15.0,17.0,67,-99.99,,,-99.99,0.000000,,2013-02-13 13:41:00,
2013-02-13 06:51:00,32.0,23.0,30.20,SSW,203,16.0,21.0,67,-99.99,,,-99.99,0.000000,,2013-02-13 13:51:00,
2013-02-13 07:01:00,32.0,23.0,30.21,SSW,209,15.0,17.0,68,-99.99,,,-99.99,-0.100000,,2013-02-13 14:01:00,
2013-02-13 07:11:00,32.0,23.0,30.21,SSW,209,12.0,15.0,68,-99.99,,,-99.99,-0.100000,,2013-02-13 14:11:00,
2013-02-13 07:21:00,32.0,23.0,30.20,SSW,207,14.0,19.0,68,-99.99,,,-99.99,0.000000,,2013-02-13 14:21:00,
2013-02-13 07:31:00,32.0,23.0,30.19,SSW,199,14.0,17.0,68,-99.99,,,-99.99,0.000000,,2013-02-13 14:31:00,
2013-02-13 07:41:00,32.0,23.0,30.20,SSW,195,13.0,16.0,68,-99.99,,,-99.99,0.300000,,2013-02-13 14:41:00,
2013-02-13 07:52:00,32.0,23.0,30.20,SSW,198,15.0,19.0,68,-99.99,,,-99.99,0.900000,,2013-02-13 14:52:00,
2013-02-13 08:01:00,32.0,23.0,30.20,SSW,194,15.0,19.0,69,-99.99,,,-99.99,2.700000,,2013-02-13 15:01:00,
2013-02-13 08:11:00,33.0,24.0,30.19,SSW,197,15.0,19.0,69,-99.99,,,-99.99,9.800000,,2013-02-13 15:11:00,
2013-02-13 08:21:00,33.0,24.0,30.20,SSW,193,14.0,19.0,68,-99.99,,,-99.99,14.300000,,2013-02-13 15:21:00,
2013-02-13 08:31:00,33.0,24.0,30.20,SSW,206,13.0,15.0,68,-99.99,,,-99.99,17.500000,,2013-02-13 15:31:00,
2013-02-13 08:41:00,33.0,23.0,30.20,SSW,202,16.0,22.0,68,-99.99,,,-99.99,21.500000,,2013-02-13 15:41:00,
2013-02-13 08:51:00,33.0,23.0,30.21,SSW,193,14.0,18.0,67,-99.99,,,-99.99,24.700001,,2013-02-13 15:51:00,
2013-02-13 09:01:00,33.0,24.0,30.21,SSW,206,15.0,19.0,68,-99.99,,,-99.99,29.400000,,2013-02-13 16:01:00,
2013-02-13 09:11:00,34.0,24.0,30.21,SSW,209,16.0,20.0,67,-99.99,,,-99.99,23.500000,,2013-02-13 16:11:00,
2013-02-13 09:21:00,34.0,24.0,30.21,SSW,212,17.0,21.0,67,-99.99,,,-99.99,49.500000,,2013-02-13 16:21:00,
2013-02-13 09:31:00,34.0,24.0,30.21,SSW,212,14.0,19.0,68,-99.99,,,-99.99,58.500000,,2013-02-13 16:31:00,
2013-02-13 09:41:00,34.0,24.0,30.21,SSW,211,17.0,21.0,68,-99.99,,,-99.99,69.800003,,2013-02-13 16:41:00,
2013-02-13 09:51:00,34.0,25.0,30.20,SSW,209,19.0,23.0,68,-99.99,,,-99.99,90.300003,,2013-02-13 16:51:00,
2013-02-13 10:01:00,34.0,25.0,30.20,SSW,211,19.0,22.0,68,-99.99,,,-99.99,90.800003,,2013-02-13 17:01:00,
2013-02-13 10:11:00,34.0,25.0,30.20,SW,215,18.0,23.0,68,-99.99,,,-99.99,126.500000,,2013-02-13 17:11:00,
2013-02-13 10:21:00,35.0,25.0,30.20,SW,214,17.0,23.0,67,-99.99,,,-99.99,136.100006,,2013-02-13 17:21:00,
2013-02-13 10:31:00,35.0,25.0,30.20,SSW,212,18.0,24.0,67,-99.99,,,-99.99,129.699997,,2013-02-13 17:31:00,
2013-02-13 10:41:00,35.0,25.0,30.19,SSW,205,17.0,21.0,67,-99.99,,,-99.99,163.000000,,2013-02-13 17:41:00,
2013-02-13 10:52:00,34.0,25.0,30.20,SSW,202,17.0,22.0,68,-99.99,,,-99.99,130.100006,,2013-02-13 17:52:00,
2013-02-13 11:01:00,34.0,25.0,30.20,SSW,208,18.0,21.0,67,-99.99,,,-99.99,109.400002,,2013-02-13 18:01:00,
2013-02-13 11:11:00,34.0,25.0,30.19,SSW,207,18.0,22.0,68,-99.99,,,-99.99,131.199997,,2013-02-13 18:11:00,
2013-02-13 11:22:00,35.0,25.0,30.20,SSW,200,19.0,24.0,67,-99.99,,,-99.99,116.099998,,2013-02-13 18:22:00,
2013-02-13 11:31:00,35.0,25.0,30.19,SSW,203,18.0,24.0,68,-99.99,,,-99.99,108.300003,,2013-02-13 18:31:00,
2013-02-13 11:41:00,35.0,25.0,30.20,SSW,202,17.0,24.0,68,-99.99,,,-99.99,137.300003,,2013-02-13 18:41:00,
2013-02-13 11:51:00,35.0,25.0,30.20,SSW,206,19.0,23.0,67,-99.99,,,-99.99,139.199997,,2013-02-13 18:51:00,
2013-02-13 12:01:00,35.0,25.0,30.20,SSW,202,20.0,25.0,67,-99.99,,,-99.99,112.300003,,2013-02-13 19:01:00,
2013-02-13 12:11:00,35.0,25.0,30.19,SSW,204,21.0,26.0,67,-99.99,,,-99.99,96.000000,,2013-02-13 19:11:00,
2013-02-13 12:21:00,35.0,25.0,30.18,SSW,202,22.0,27.0,67,-99.99,,,-99.99,110.199997,,2013-02-13 19:21:00,
2013-02-13 12:31:00,35.0,25.0,30.18,SSW,195,20.0,25.0,68,-99.99,,,-99.99,120.800003,,2013-02-13 19:31:00,
2013-02-13 12:41:00,35.0,25.0,30.18,SSW,198,22.0,25.0,67,-99.99,,,-99.99,162.399994,,2013-02-13 19:41:00,
2013-02-13 12:51:00,35.0,25.0,30.18,SSW,200,21.0,25.0,67,-99.99,,,-99.99,155.100006,,2013-02-13 19:51:00,
2013-02-13 13:01:00,35.0,25.0,30.17,SSW,198,21.0,25.0,67,-99.99,,,-99.99,143.899994,,2013-02-13 20:01:00,
2013-02-13 13:11:00,35.0,25.0,30.17,SSW,194,20.0,24.0,66,-99.99,,,-99.99,109.500000,,2013-02-13 20:11:00,
2013-02-13 13:21:00,35.0,25.0,30.16,SSW,193,20.0,26.0,66,-99.99,,,-99.99,109.500000,,2013-02-13 20:21:00,
2013-02-13 13:31:00,35.0,25.0,30.16,SSW,198,19.0,24.0,67,-99.99,,,-99.99,104.000000,,2013-02-13 20:31:00,
2013-02-13 13:41:00,35.0,26.0,30.16,SSW,201,18.0,22.0,67,-99.99,,,-99.99,122.500000,,2013-02-13 20:41:00,
2013-02-13 13:51:00,35.0,25.0,30.16,SSW,202,18.0,22.0,66,-99.99,,,-99.99,55.900002,,2013-02-13 20:51:00,
2013-02-13 14:01:00,35.0,25.0,30.16,SSW,196,20.0,25.0,66,-99.99,,,-99.99,46.200001,,2013-02-13 21:01:00,
2013-02-13 14:11:00,35.0,25.0,30.15,SSW,196,20.0,23.0,67,-99.99,,,-99.99,60.299999,,2013-02-13 21:11:00,
2013-02-13 14:21:00,35.0,25.0,30.15,SSW,200,19.0,23.0,67,-99.99,,,-99.99,48.299999,,2013-02-13 21:21:00,
2013-02-13 14:31:00,35.0,25.0,30.15,SSW,196,19.0,23.0,66,-99.99,,,-99.99,38.000000,,2013-02-13 21:31:00,
2013-02-13 14:42:00,35.0,25.0,30.15,SSW,199,18.0,23.0,67,-99.99,,,-99.99,30.700001,,2013-02-13 21:42:00,
2013-02-13 14:51:00,35.0,25.0,30.15,SSW,206,18.0,22.0,66,-99.99,,,-99.99,32.599998,,2013-02-13 21:51:00,
2013-02-13 15:01:00,35.0,25.0,30.14,SSW,199,20.0,25.0,67,-99.99,,,-99.99,48.700001,,2013-02-13 22:01:00,
2013-02-13 15:11:00,35.0,25.0,30.14,SSW,195,18.0,22.0,67,-99.99,,,-99.99,59.799999,,2013-02-13 22:11:00,
2013-02-13 15:31:00,35.0,25.0,30.14,SSW,192,17.0,22.0,66,-99.99,,,-99.99,41.400002,,2013-02-13 22:31:00,
2013-02-13 15:41:00,36.0,26.0,30.15,South,187,17.0,21.0,66,-99.99,,,-99.99,43.900002,,2013-02-13 22:41:00,
2013-02-13 15:51:00,36.0,26.0,30.14,South,187,18.0,22.0,65,-99.99,,,-99.99,74.099998,,2013-02-13 22:51:00,
2013-02-13 16:01:00,36.0,26.0,30.14,South,187,17.0,22.0,65,-99.99,,,-99.99,57.299999,,2013-02-13 23:01:00,
2013-02-13 16:11:00,36.0,26.0,30.14,South,183,17.0,22.0,64,-99.99,,,-99.99,60.700001,,2013-02-13 23:11:00,
2013-02-13 16:21:00,37.0,26.0,30.14,South,184,17.0,25.0,64,-99.99,,,-99.99,71.099998,,2013-02-13 23:21:00,
2013-02-13 16:31:00,37.0,26.0,30.14,South,189,17.0,25.0,63,-99.99,,,-99.99,68.400002,,2013-02-13 23:31:00,
2013-02-13 16:41:00,36.0,26.0,30.14,SSW,192,16.0,20.0,64,-99.99,,,-99.99,52.200001,,2013-02-13 23:41:00,
2013-02-13 16:52:00,36.0,26.0,30.13,SSW,192,18.0,24.0,64,-99.99,,,-99.99,55.900002,,2013-02-13 23:52:00,
2013-02-13 17:01:00,36.0,26.0,30.13,South,187,13.0,18.0,65,-99.99,,,-99.99,40.299999,,2013-02-14 00:01:00,
2013-02-13 17:11:00,37.0,26.0,30.13,South,187,15.0,20.0,64,-99.99,,,-99.99,36.500000,,2013-02-14 00:11:00,
2013-02-13 17:21:00,37.0,26.0,30.13,South,188,17.0,24.0,63,-99.99,,,-99.99,26.200001,,2013-02-14 00:21:00,
2013-02-13 17:31:00,36.0,26.0,30.13,South,191,16.0,21.0,64,-99.99,,,-99.99,23.100000,,2013-02-14 00:31:00,
2013-02-13 17:41:00,36.0,25.0,30.13,South,185,17.0,23.0,64,-99.99,,,-99.99,12.700000,,2013-02-14 00:41:00,
2013-02-13 17:51:00,36.0,26.0,30.12,South,184,18.0,24.0,64,-99.99,,,-99.99,7.800000,,2013-02-14 00:51:00,
2013-02-13 18:01:00,36.0,26.0,30.12,South,189,19.0,25.0,64,-99.99,,,-99.99,5.900000,,2013-02-14 01:01:00,
2013-02-13 18:11:00,36.0,26.0,30.12,South,191,19.0,24.0,65,-99.99,,,-99.99,2.700000,,2013-02-14 01:11:00,
2013-02-13 18:21:00,36.0,26.0,30.13,South,191,16.0,19.0,65,-99.99,,,-99.99,0.800000,,2013-02-14 01:21:00,
2013-02-13 18:31:00,36.0,26.0,30.13,South,187,15.0,20.0,65,-99.99,,,-99.99,0.300000,,2013-02-14 01:31:00,
2013-02-13 18:41:00,37.0,26.0,30.12,South,191,17.0,20.0,65,-99.99,,,-99.99,0.000000,,2013-02-14 01:41:00,
2013-02-13 18:51:00,36.0,26.0,30.13,SSW,194,18.0,22.0,66,-99.99,,,-99.99,-0.100000,,2013-02-14 01:51:00,
2013-02-13 19:01:00,36.0,26.0,30.13,SSW,202,17.0,21.0,67,-99.99,,,-99.99,-0.100000,,2013-02-14 02:01:00,
2013-02-13 19:11:00,36.0,26.0,30.13,SSW,197,19.0,23.0,66,-99.99,,,-99.99,-0.100000,,2013-02-14 02:11:00,
2013-02-13 19:21:00,36.0,26.0,30.12,SSW,195,20.0,24.0,66,-99.99,,,-99.99,-0.100000,,2013-02-14 02:21:00,
2013-02-13 19:31:00,36.0,26.0,30.12,SSW,199,21.0,26.0,67,-99.99,,,-99.99,-0.200000,,2013-02-14 02:31:00,
2013-02-13 19:41:00,36.0,26.0,30.12,SSW,199,21.0,26.0,67,-99.99,,,-99.99,-0.200000,,2013-02-14 02:41:00,
2013-02-13 19:51:00,36.0,26.0,30.12,SSW,199,21.0,26.0,67,-99.99,,,-99.99,-0.200000,,2013-02-14 02:51:00,
2013-02-13 20:02:00,36.0,26.0,30.12,SSW,197,21.0,25.0,66,-99.99,,,-99.99,0.000000,,2013-02-14 03:02:00,
2013-02-13 20:11:00,36.0,26.0,30.12,SSW,197,21.0,26.0,66,-99.99,,,-99.99,0.000000,,2013-02-14 03:11:00,
2013-02-13 20:21:00,37.0,26.0,30.12,SSW,198,22.0,27.0,66,-99.99,,,-99.99,-0.100000,,2013-02-14 03:21:00,
2013-02-13 20:31:00,37.0,26.0,30.12,SSW,198,19.0,26.0,65,-99.99,,,-99.99,-0.100000,,2013-02-14 03:31:00,
2013-02-13 20:42:00,37.0,26.0,30.12,SSW,198,19.0,23.0,64,-99.99,,,-99.99,0.000000,,2013-02-14 03:42:00,
2013-02-13 20:51:00,37.0,26.0,30.11,SSW,198,20.0,25.0,64,-99.99,,,-99.99,0.000000,,2013-02-14 03:51:00,
2013-02-13 21:01:00,37.0,26.0,30.11,SSW,198,19.0,24.0,64,-99.99,,,-99.99,0.000000,,2013-02-14 04:01:00,
2013-02-13 21:11:00,37.0,26.0,30.11,SSW,202,19.0,24.0,64,-99.99,,,-99.99,-0.100000,,2013-02-14 04:11:00,
2013-02-13 21:21:00,36.0,26.0,30.12,SSW,209,17.0,22.0,65,-99.99,,,-99.99,-0.100000,,2013-02-14 04:21:00,
2013-02-13 21:31:00,37.0,26.0,30.13,SSW,209,17.0,21.0,65,-99.99,,,-99.99,0.000000,,2013-02-14 04:31:00,
2013-02-13 21:41:00,37.0,26.0,30.13,SSW,212,17.0,22.0,65,-99.99,,,-99.99,-0.100000,,2013-02-14 04:41:00,
2013-02-13 21:51:00,36.0,26.0,30.12,SSW,211,18.0,22.0,66,-99.99,,,-99.99,0.000000,,2013-02-14 04:51:00,
2013-02-13 22:01:00,37.0,26.0,30.12,SSW,205,21.0,27.0,65,-99.99,,,-99.99,-0.100000,,2013-02-14 05:01:00,
2013-02-13 22:11:00,37.0,26.0,30.12,SSW,211,20.0,25.0,65,-99.99,,,-99.99,-0.100000,,2013-02-14 05:11:00,
2013-02-13 22:21:00,37.0,26.0,30.12,SSW,212,20.0,24.0,65,-99.99,,,-99.99,-0.100000,,2013-02-14 05:21:00,
2013-02-13 22:31:00,36.0,26.0,30.13,SSW,213,17.0,23.0,65,-99.99,,,-99.99,-0.100000,,2013-02-14 05:31:00,
2013-02-13 22:41:00,36.0,26.0,30.13,SSW,213,16.0,19.0,65,-99.99,,,-99.99,-0.100000,,2013-02-14 05:41:00,
2013-02-13 22:51:00,36.0,26.0,30.13,SSW,209,20.0,26.0,65,-99.99,,,-99.99,-0.100000,,2013-02-14 05:51:00,
2013-02-13 23:01:00,36.0,26.0,30.13,SW,214,19.0,24.0,65,-99.99,,,-99.99,-0.100000,,2013-02-14 06:01:00,
2013-02-13 23:11:00,36.0,26.0,30.12,SSW,212,19.0,23.0,65,-99.99,,,-99.99,-0.100000,,2013-02-14 06:11:00,
2013-02-13 23:21:00,36.0,26.0,30.13,SSW,213,18.0,25.0,65,-99.99,,,-99.99,0.000000,,2013-02-14 06:21:00,
2013-02-13 23:31:00,36.0,25.0,30.13,SW,217,17.0,21.0,65,-99.99,,,-99.99,-0.100000,,2013-02-14 06:31:00,
2013-02-13 23:41:00,36.0,25.0,30.13,SSW,209,16.0,20.0,66,-99.99,,,-99.99,-0.100000,,2013-02-14 06:41:00,
2013-02-13 23:51:00,35.0,25.0,30.13,SW,214,15.0,19.0,66,-99.99,,,-99.99,-0.100000,,2013-02-14 06:51:00,